ACA1529 CYHZ-KBOS

Flight info

Callsign ACA1529
Flight time 1h 14m
Altitude 34000
Route CYHZ4/23 DCT SENVI DCT VIGMA DCT ALLEX DCT AJJAY OOSHN5
Aircraft B738/M-VGDW/C

Departure

Time 2026-05-05 00:18
Airport Halifax / Stanfield International Airport (CYHZ)

Arrival

Time 2026-05-05 01:32
Airport Boston Logan International Airport (KBOS)
Time Latitude Longitude Altitude Speed Heading
2026-05-04 23:45 44.88853 -63.51431 449 ft 0 kts 262°
2026-05-05 00:08 44.88855 -63.51412 449 ft 3 kts 262°
2026-05-05 00:08 44.88858 -63.51384 449 ft 3 kts 261°
2026-05-05 00:08 44.88861 -63.51359 449 ft 2 kts 261°
2026-05-05 00:08 44.88865 -63.51334 449 ft 3 kts 239°
2026-05-05 00:09 44.88877 -63.51315 449 ft 3 kts 197°
2026-05-05 00:09 44.88896 -63.51313 449 ft 3 kts 171°
2026-05-05 00:09 44.88910 -63.51316 449 ft 1 kts 169°
2026-05-05 00:09 44.88914 -63.51317 449 ft 0 kts 169°
2026-05-05 00:12 44.88894 -63.51312 449 ft 7 kts 169°
2026-05-05 00:12 44.88823 -63.51293 450 ft 14 kts 170°
2026-05-05 00:13 44.88723 -63.51268 451 ft 12 kts 168°
2026-05-05 00:13 44.88693 -63.51201 452 ft 11 kts 83°
2026-05-05 00:13 44.88709 -63.51063 452 ft 17 kts 80°
2026-05-05 00:13 44.88754 -63.50901 453 ft 15 kts 43°
2026-05-05 00:14 44.88849 -63.50803 451 ft 19 kts 35°
2026-05-05 00:14 44.88961 -63.50690 450 ft 19 kts 36°
2026-05-05 00:14 44.89003 -63.50595 452 ft 0 kts 108°
2026-05-05 00:16 44.88995 -63.50574 451 ft 7 kts 120°
2026-05-05 00:16 44.88951 -63.50481 452 ft 12 kts 125°
2026-05-05 00:17 44.88889 -63.50439 453 ft 10 kts 207°
2026-05-05 00:17 44.88862 -63.50467 454 ft 0 kts 215°
2026-05-05 00:17 44.88861 -63.50467 454 ft 0 kts 215°
2026-05-05 00:18 44.88842 -63.50486 453 ft 20 kts 214°
2026-05-05 00:18 44.88491 -63.50829 455 ft 101 kts 214°
2026-05-05 00:18 44.87712 -63.51580 498 ft 164 kts 214°
2026-05-05 00:18 44.86711 -63.52555 1181 ft 181 kts 218°
2026-05-05 00:19 44.85714 -63.53560 2364 ft 168 kts 228°
2026-05-05 00:19 44.84945 -63.54608 3460 ft 144 kts 237°
2026-05-05 00:19 44.84331 -63.55630 4344 ft 135 kts 241°
2026-05-05 00:19 44.83707 -63.56762 4394 ft 147 kts 240°
2026-05-05 00:20 44.83066 -63.57905 4614 ft 147 kts 240°
2026-05-05 00:20 44.82508 -63.59115 5179 ft 151 kts 248°
2026-05-05 00:20 44.81999 -63.60450 5695 ft 157 kts 248°
2026-05-05 00:20 44.81484 -63.61809 6220 ft 160 kts 248°
2026-05-05 00:21 44.80956 -63.63196 6725 ft 160 kts 248°
2026-05-05 00:21 44.80414 -63.64621 7033 ft 175 kts 248°
2026-05-05 00:21 44.79819 -63.66187 7196 ft 194 kts 247°
2026-05-05 00:21 44.79138 -63.67973 7353 ft 217 kts 246°
2026-05-05 00:22 44.78390 -63.69919 7803 ft 230 kts 246°
2026-05-05 00:22 44.77625 -63.71895 8496 ft 234 kts 246°
2026-05-05 00:22 44.76834 -63.73930 9267 ft 237 kts 246°
2026-05-05 00:22 44.76036 -63.75983 9995 ft 240 kts 246°
2026-05-05 00:23 44.75220 -63.78090 10274 ft 260 kts 246°
2026-05-05 00:23 44.74323 -63.80404 10610 ft 275 kts 246°
2026-05-05 00:23 44.73396 -63.82785 11232 ft 280 kts 246°
2026-05-05 00:23 44.72456 -63.85191 11965 ft 282 kts 246°
2026-05-05 00:24 44.71509 -63.87613 12691 ft 283 kts 246°
2026-05-05 00:24 44.70554 -63.90059 13419 ft 286 kts 246°
2026-05-05 00:24 44.69591 -63.92526 14063 ft 289 kts 246°
2026-05-05 00:24 44.68621 -63.95007 14733 ft 290 kts 246°
2026-05-05 00:25 44.67659 -63.97464 15401 ft 291 kts 246°
2026-05-05 00:25 44.66687 -63.99972 16043 ft 292 kts 248°
2026-05-05 00:25 44.65827 -64.02566 16667 ft 293 kts 251°
2026-05-05 00:25 44.65024 -64.05206 17308 ft 295 kts 251°
2026-05-05 00:26 44.64228 -64.07874 17930 ft 297 kts 252°
2026-05-05 00:26 44.63435 -64.10538 18473 ft 299 kts 252°
2026-05-05 00:26 44.62621 -64.13260 18979 ft 303 kts 252°
2026-05-05 00:26 44.61784 -64.16056 19110 ft 318 kts 252°
2026-05-05 00:27 44.60900 -64.18997 19303 ft 330 kts 252°
2026-05-05 00:27 44.60005 -64.21953 19705 ft 335 kts 252°
2026-05-05 00:27 44.59081 -64.24991 20236 ft 336 kts 252°
2026-05-05 00:27 44.58156 -64.28021 20734 ft 338 kts 252°
2026-05-05 00:28 44.57237 -64.31028 21185 ft 341 kts 252°
2026-05-05 00:28 44.56295 -64.34106 21630 ft 344 kts 252°
2026-05-05 00:28 44.55340 -64.37224 22090 ft 347 kts 252°
2026-05-05 00:28 44.54379 -64.40357 22529 ft 350 kts 252°
2026-05-05 00:29 44.53424 -64.43468 22958 ft 353 kts 252°
2026-05-05 00:29 44.52448 -64.46644 23380 ft 356 kts 252°
2026-05-05 00:29 44.51460 -64.49852 23725 ft 358 kts 253°
2026-05-05 00:29 44.50466 -64.53078 24053 ft 361 kts 253°
2026-05-05 00:30 44.49464 -64.56327 24380 ft 364 kts 253°
2026-05-05 00:30 44.48463 -64.59568 24704 ft 367 kts 253°
2026-05-05 00:30 44.47442 -64.62868 25035 ft 370 kts 253°
2026-05-05 00:30 44.46410 -64.66198 25353 ft 373 kts 253°
2026-05-05 00:31 44.45384 -64.69507 25659 ft 375 kts 253°
2026-05-05 00:31 44.44338 -64.72875 25963 ft 378 kts 253°
2026-05-05 00:31 44.43284 -64.76265 26300 ft 380 kts 253°
2026-05-05 00:31 44.42225 -64.79661 26758 ft 378 kts 253°
2026-05-05 00:32 44.41180 -64.83011 27026 ft 382 kts 253°
2026-05-05 00:32 44.40101 -64.86475 27089 ft 390 kts 253°
2026-05-05 00:32 44.39019 -64.89948 27172 ft 397 kts 253°
2026-05-05 00:32 44.37903 -64.93523 27338 ft 401 kts 253°
2026-05-05 00:33 44.36774 -64.97120 27627 ft 403 kts 253°
2026-05-05 00:33 44.35661 -65.00656 28080 ft 400 kts 254°
2026-05-05 00:33 44.34531 -65.04238 28454 ft 400 kts 254°
2026-05-05 00:33 44.33404 -65.07814 28754 ft 402 kts 254°
2026-05-05 00:34 44.32293 -65.11339 29072 ft 402 kts 254°
2026-05-05 00:34 44.31161 -65.14922 29453 ft 401 kts 255°
2026-05-05 00:34 44.30028 -65.18504 29808 ft 401 kts 255°
2026-05-05 00:34 44.28901 -65.22067 30086 ft 402 kts 255°
2026-05-05 00:35 44.27770 -65.25635 30359 ft 402 kts 254°
2026-05-05 00:35 44.26649 -65.29166 30653 ft 401 kts 254°
2026-05-05 00:35 44.25517 -65.32727 30944 ft 401 kts 253°
2026-05-05 00:35 44.24384 -65.36287 31211 ft 400 kts 253°
2026-05-05 00:36 44.23251 -65.39842 31496 ft 400 kts 252°
2026-05-05 00:36 44.22120 -65.43387 31781 ft 399 kts 252°
2026-05-05 00:36 44.21003 -65.46885 32054 ft 399 kts 252°
2026-05-05 00:36 44.19873 -65.50415 32323 ft 398 kts 251°
2026-05-05 00:37 44.18738 -65.53959 32603 ft 398 kts 251°
2026-05-05 00:37 44.17621 -65.57443 32881 ft 397 kts 251°
2026-05-05 00:37 44.16490 -65.60963 33153 ft 397 kts 250°
2026-05-05 00:37 44.15359 -65.64480 33402 ft 396 kts 250°
2026-05-05 00:38 44.14240 -65.67955 33679 ft 395 kts 250°
2026-05-05 00:38 44.13107 -65.71467 33876 ft 396 kts 250°
2026-05-05 00:38 44.11970 -65.74991 33858 ft 398 kts 250°
2026-05-05 00:39 44.09710 -65.81978 33864 ft 396 kts 250°
2026-05-05 00:39 44.07446 -65.88953 33870 ft 394 kts 250°
2026-05-05 00:40 44.05204 -65.95845 33870 ft 392 kts 250°
2026-05-05 00:40 44.03094 -66.02316 33875 ft 391 kts 250°
2026-05-05 00:41 44.00851 -66.09180 33881 ft 392 kts 250°
2026-05-05 00:41 43.98581 -66.16107 33883 ft 394 kts 250°
2026-05-05 00:42 43.96295 -66.23067 33885 ft 396 kts 250°
2026-05-05 00:42 43.94011 -66.30001 33882 ft 398 kts 250°
2026-05-05 00:43 43.91688 -66.37031 33881 ft 400 kts 250°
2026-05-05 00:43 43.89359 -66.44063 33880 ft 402 kts 251°
2026-05-05 00:44 43.87025 -66.51093 33878 ft 404 kts 251°
2026-05-05 00:44 43.84663 -66.58187 33876 ft 405 kts 251°
2026-05-05 00:45 43.82300 -66.65265 33877 ft 406 kts 251°
2026-05-05 00:45 43.79912 -66.72399 33880 ft 406 kts 251°
2026-05-05 00:46 43.77536 -66.79478 33885 ft 406 kts 251°
2026-05-05 00:46 43.75159 -66.86546 33883 ft 406 kts 251°
2026-05-05 00:47 43.72769 -66.93632 33892 ft 406 kts 251°
2026-05-05 00:47 43.71021 -67.00935 33893 ft 395 kts 265°
2026-05-05 00:48 43.70710 -67.08407 33902 ft 387 kts 276°
2026-05-05 00:48 43.70875 -67.15855 33894 ft 388 kts 276°
2026-05-05 00:49 43.71034 -67.23276 33891 ft 388 kts 276°
2026-05-05 00:49 43.71175 -67.30776 33892 ft 389 kts 276°
2026-05-05 00:50 43.71302 -67.38226 33891 ft 389 kts 276°
2026-05-05 00:50 43.71422 -67.45677 33892 ft 389 kts 276°
2026-05-05 00:51 43.71538 -67.53186 33885 ft 389 kts 276°
2026-05-05 00:51 43.71648 -67.60655 33882 ft 389 kts 276°
2026-05-05 00:52 43.71754 -67.68110 33881 ft 389 kts 276°
2026-05-05 00:52 43.71855 -67.75604 33879 ft 389 kts 277°
2026-05-05 00:53 43.71950 -67.83060 33883 ft 389 kts 277°
2026-05-05 00:53 43.72041 -67.90521 33880 ft 389 kts 277°
2026-05-05 00:54 43.72127 -67.97998 33881 ft 389 kts 277°
2026-05-05 00:54 43.72209 -68.05489 33882 ft 389 kts 277°
2026-05-05 00:55 43.72273 -68.11719 33876 ft 389 kts 277°
2026-05-05 00:55 43.72345 -68.19179 33875 ft 389 kts 277°
2026-05-05 00:56 43.72413 -68.26705 33877 ft 389 kts 277°
2026-05-05 00:56 43.72476 -68.34170 33878 ft 390 kts 277°
2026-05-05 00:57 43.72533 -68.41627 33871 ft 390 kts 277°
2026-05-05 00:57 43.72586 -68.49148 33871 ft 390 kts 277°
2026-05-05 00:58 43.72635 -68.56630 33870 ft 391 kts 277°
2026-05-05 00:58 43.72679 -68.64163 33867 ft 391 kts 277°
2026-05-05 00:59 43.72717 -68.71662 33866 ft 392 kts 277°
2026-05-05 00:59 43.72751 -68.79192 33856 ft 393 kts 277°
2026-05-05 01:00 43.72779 -68.86784 33857 ft 394 kts 276°
2026-05-05 01:00 43.72803 -68.94331 33860 ft 395 kts 276°
2026-05-05 01:01 43.72823 -69.01946 33703 ft 399 kts 276°
2026-05-05 01:01 43.72833 -69.05824 33264 ft 402 kts 276°
2026-05-05 01:01 43.72838 -69.09693 32909 ft 399 kts 276°
2026-05-05 01:01 43.72841 -69.13467 32555 ft 396 kts 276°
2026-05-05 01:02 43.72844 -69.17304 32210 ft 397 kts 276°
2026-05-05 01:02 43.72847 -69.21146 31860 ft 399 kts 276°
2026-05-05 01:02 43.72849 -69.24940 31522 ft 399 kts 275°
2026-05-05 01:02 43.72849 -69.28798 31229 ft 399 kts 275°
2026-05-05 01:03 43.72847 -69.32632 30974 ft 398 kts 275°
2026-05-05 01:03 43.72844 -69.36462 30724 ft 397 kts 275°
2026-05-05 01:03 43.72841 -69.40235 30476 ft 397 kts 275°
2026-05-05 01:03 43.72837 -69.44075 30222 ft 397 kts 275°
2026-05-05 01:04 43.72830 -69.47892 29977 ft 398 kts 274°
2026-05-05 01:04 43.71956 -69.55471 29393 ft 416 kts 250°
2026-05-05 01:04 43.70386 -69.58911 29114 ft 430 kts 236°
2026-05-05 01:05 43.68172 -69.61793 28700 ft 446 kts 221°
2026-05-05 01:05 43.65346 -69.63787 28156 ft 466 kts 206°
2026-05-05 01:05 43.62253 -69.65230 27492 ft 468 kts 203°
2026-05-05 01:05 43.59191 -69.66548 26831 ft 463 kts 202°
2026-05-05 01:06 43.56109 -69.67851 26183 ft 458 kts 202°
2026-05-05 01:06 43.53100 -69.69138 25555 ft 455 kts 202°
2026-05-05 01:06 43.50086 -69.70454 24937 ft 452 kts 203°
2026-05-05 01:06 43.47092 -69.71782 24329 ft 448 kts 203°
2026-05-05 01:07 43.44126 -69.73110 23732 ft 444 kts 203°
2026-05-05 01:07 43.41197 -69.74427 23085 ft 440 kts 203°
2026-05-05 01:07 43.38328 -69.75718 22413 ft 436 kts 203°
2026-05-05 01:07 43.35450 -69.77011 21734 ft 429 kts 203°
2026-05-05 01:08 43.32629 -69.78274 21070 ft 420 kts 203°
2026-05-05 01:08 43.29906 -69.79492 20440 ft 411 kts 203°
2026-05-05 01:08 43.27198 -69.80703 19800 ft 404 kts 203°
2026-05-05 01:08 43.24543 -69.81890 19201 ft 396 kts 203°
2026-05-05 01:09 43.21968 -69.83040 18629 ft 390 kts 203°
2026-05-05 01:09 43.19400 -69.84186 18044 ft 383 kts 203°
2026-05-05 01:09 43.16907 -69.85299 17406 ft 377 kts 203°
2026-05-05 01:09 43.14417 -69.86409 16796 ft 371 kts 203°
2026-05-05 01:10 43.11953 -69.87507 16277 ft 370 kts 203°
2026-05-05 01:10 43.09532 -69.88586 15782 ft 368 kts 202°
2026-05-05 01:10 43.07097 -69.89668 15322 ft 365 kts 202°
2026-05-05 01:10 43.04687 -69.90737 14880 ft 362 kts 202°
2026-05-05 01:11 43.02297 -69.91796 14462 ft 358 kts 202°
2026-05-05 01:11 42.99927 -69.92844 14047 ft 355 kts 202°
2026-05-05 01:11 42.97609 -69.93868 13638 ft 352 kts 202°
2026-05-05 01:11 42.95283 -69.94895 13183 ft 349 kts 202°
2026-05-05 01:12 42.92981 -69.95911 12725 ft 343 kts 202°
2026-05-05 01:12 42.90733 -69.96901 12286 ft 334 kts 203°
2026-05-05 01:12 42.88545 -69.97864 11826 ft 327 kts 203°
2026-05-05 01:12 42.86431 -69.98797 11399 ft 321 kts 203°
2026-05-05 01:13 42.84306 -69.99735 11085 ft 318 kts 203°
2026-05-05 01:13 42.82216 -70.00655 11047 ft 312 kts 203°
2026-05-05 01:13 42.80117 -70.01582 11059 ft 320 kts 203°
2026-05-05 01:13 42.78004 -70.02514 11051 ft 326 kts 202°
2026-05-05 01:14 42.75843 -70.03466 11033 ft 325 kts 203°
2026-05-05 01:14 42.73742 -70.04470 11003 ft 315 kts 205°
2026-05-05 01:14 42.71701 -70.05491 10811 ft 308 kts 205°
2026-05-05 01:14 42.69685 -70.06502 10443 ft 308 kts 205°
2026-05-05 01:15 42.67690 -70.07496 10110 ft 308 kts 205°
2026-05-05 01:15 42.65766 -70.08740 10053 ft 305 kts 223°
2026-05-05 01:15 42.64367 -70.10824 10041 ft 293 kts 243°
2026-05-05 01:15 42.63483 -70.13268 10025 ft 283 kts 249°
2026-05-05 01:16 42.62681 -70.15671 9922 ft 274 kts 249°
2026-05-05 01:16 42.61905 -70.17972 9722 ft 268 kts 249°
2026-05-05 01:16 42.61129 -70.20250 9480 ft 264 kts 249°
2026-05-05 01:16 42.60372 -70.22507 9121 ft 264 kts 252°
2026-05-05 01:17 42.60031 -70.24896 9053 ft 252 kts 268°
2026-05-05 01:17 42.59931 -70.27243 8993 ft 247 kts 269°
2026-05-05 01:17 42.59834 -70.29595 8862 ft 253 kts 268°
2026-05-05 01:17 42.59733 -70.31983 8743 ft 258 kts 268°
2026-05-05 01:18 42.59626 -70.34434 8616 ft 261 kts 268°
2026-05-05 01:18 42.59515 -70.36912 8486 ft 264 kts 268°
2026-05-05 01:18 42.59402 -70.39404 8346 ft 262 kts 268°
2026-05-05 01:18 42.59288 -70.41844 8216 ft 261 kts 268°
2026-05-05 01:19 42.59174 -70.44294 8091 ft 259 kts 268°
2026-05-05 01:19 42.59060 -70.46731 7963 ft 257 kts 268°
2026-05-05 01:19 42.58946 -70.49142 7838 ft 250 kts 268°
2026-05-05 01:19 42.58837 -70.51412 7727 ft 238 kts 268°
2026-05-05 01:20 42.58731 -70.53624 7584 ft 233 kts 268°
2026-05-05 01:20 42.58624 -70.55852 7472 ft 241 kts 267°
2026-05-05 01:20 42.58327 -70.58126 7348 ft 247 kts 256°
2026-05-05 01:20 42.57825 -70.60352 7220 ft 245 kts 255°
2026-05-05 01:21 42.57316 -70.62546 7103 ft 247 kts 255°
2026-05-05 01:21 42.56813 -70.64769 7036 ft 245 kts 255°
2026-05-05 01:21 42.56322 -70.66975 7019 ft 242 kts 255°
2026-05-05 01:21 42.56134 -70.69176 6980 ft 229 kts 278°
2026-05-05 01:22 42.56577 -70.71161 6778 ft 221 kts 296°
2026-05-05 01:22 42.57438 -70.72885 6476 ft 219 kts 304°
2026-05-05 01:22 42.58382 -70.74513 6114 ft 218 kts 304°
2026-05-05 01:22 42.59348 -70.76118 6069 ft 225 kts 310°
2026-05-05 01:23 42.60695 -70.77206 6026 ft 231 kts 339°
2026-05-05 01:23 42.62283 -70.77314 6015 ft 231 kts
2026-05-05 01:23 42.63830 -70.76771 6011 ft 227 kts
2026-05-05 01:23 42.65320 -70.77055 5856 ft 210 kts 327°
2026-05-05 01:24 42.66348 -70.78346 5438 ft 200 kts 295°
2026-05-05 01:24 42.66867 -70.80077 5017 ft 201 kts 287°
2026-05-05 01:24 42.67262 -70.81893 4628 ft 199 kts 273°
2026-05-05 01:24 42.66947 -70.83698 4241 ft 199 kts 241°
2026-05-05 01:25 42.66155 -70.85220 4075 ft 201 kts 231°
2026-05-05 01:25 42.64993 -70.86312 4045 ft 205 kts 211°
2026-05-05 01:25 42.63709 -70.87156 4027 ft 205 kts 209°
2026-05-05 01:25 42.62389 -70.87913 4017 ft 206 kts 207°
2026-05-05 01:26 42.61046 -70.88604 4019 ft 207 kts 205°
2026-05-05 01:26 42.59691 -70.89271 4043 ft 207 kts 205°
2026-05-05 01:26 42.58349 -70.89923 4019 ft 204 kts 205°
2026-05-05 01:26 42.57036 -70.90555 3986 ft 189 kts 206°
2026-05-05 01:27 42.55848 -70.91128 3826 ft 179 kts 206°
2026-05-05 01:27 42.54693 -70.91689 3579 ft 173 kts 205°
2026-05-05 01:27 42.53580 -70.92228 3373 ft 167 kts 205°
2026-05-05 01:27 42.52502 -70.92750 3146 ft 163 kts 205°
2026-05-05 01:28 42.51450 -70.93262 2931 ft 158 kts 204°
2026-05-05 01:28 42.50437 -70.93749 2742 ft 153 kts 205°
2026-05-05 01:28 42.49429 -70.94240 2523 ft 155 kts 205°
2026-05-05 01:28 42.48425 -70.94726 2320 ft 150 kts 205°
2026-05-05 01:29 42.47458 -70.95194 2112 ft 144 kts 205°
2026-05-05 01:29 42.46555 -70.95630 1947 ft 133 kts 206°
2026-05-05 01:29 42.45725 -70.96032 1805 ft 125 kts 207°
2026-05-05 01:29 42.44897 -70.96435 1618 ft 124 kts 207°
2026-05-05 01:30 42.44101 -70.96822 1445 ft 122 kts 206°
2026-05-05 01:30 42.43298 -70.97209 1279 ft 122 kts 207°
2026-05-05 01:30 42.42500 -70.97598 1098 ft 121 kts 205°
2026-05-05 01:30 42.41686 -70.97993 953 ft 128 kts 204°
2026-05-05 01:31 42.40853 -70.98394 778 ft 133 kts 202°
2026-05-05 01:31 42.39929 -70.98830 631 ft 145 kts 200°
2026-05-05 01:31 42.38980 -70.99289 431 ft 147 kts 203°
2026-05-05 01:31 42.38011 -70.99768 198 ft 145 kts 202°
2026-05-05 01:32 42.37052 -71.00231 27 ft 147 kts 200°
2026-05-05 01:32 42.36204 -71.00646 26 ft 107 kts 200°
2026-05-05 01:32 42.35653 -71.00915 23 ft 60 kts 200°
2026-05-05 01:32 42.35385 -71.01059 28 ft 13 kts 230°
2026-05-05 01:33 42.35399 -71.01171 26 ft 12 kts 289°
2026-05-05 01:33 42.35422 -71.01260 27 ft 9 kts 291°
2026-05-05 01:33 42.35429 -71.01284 24 ft 0 kts 291°
2026-05-05 01:34 42.35430 -71.01286 24 ft 1 kts 291°
2026-05-05 01:34 42.35442 -71.01324 27 ft 8 kts 296°
2026-05-05 01:34 42.35501 -71.01359 29 ft 12 kts 18°
2026-05-05 01:34 42.35602 -71.01316 27 ft 18 kts
2026-05-05 01:35 42.35712 -71.01290 25 ft 10 kts 355°
2026-05-05 01:35 42.35745 -71.01327 26 ft 0 kts 296°
2026-05-05 01:36 42.35748 -71.01334 24 ft 3 kts 294°
2026-05-05 01:36 42.35765 -71.01393 25 ft 10 kts 291°
2026-05-05 01:36 42.35794 -71.01505 27 ft 14 kts 288°
2026-05-05 01:36 42.35825 -71.01648 26 ft 17 kts 284°
2026-05-05 01:37 42.35847 -71.01786 31 ft 16 kts 282°
2026-05-05 01:37 42.35886 -71.01924 26 ft 16 kts 301°
2026-05-05 01:37 42.35933 -71.02027 28 ft 10 kts 309°
2026-05-05 01:37 42.35987 -71.02026 24 ft 7 kts 46°
2026-05-05 01:38 42.35994 -71.01953 24 ft 10 kts 79°
2026-05-05 01:38 42.36034 -71.01910 27 ft 0 kts 26°